Regional Weather Roundup
Issued by NWS

Home | Current Version | Previous Version | Text Only | Print | Product List | Glossary On
Versions: 1 2 3 4 5 6 7 8 9 10 11 12 13 14 15 16 17 18 19 20 21 22 23 24 25 26 27 28 29 30 31 32 33 34 35 36 37 38 39 40 41 42 43 44 45 46 47 48 49 50
000
ASUS43 KMPX 202101
RWRMN
WEATHER ROUNDUP FOR MINNESOTA
NATIONAL WEATHER SERVICE TWIN CITIES/CHANHASSEN MN
400 PM CDT WED SEP 20 2017


NOTE: "FAIR" INDICATES FEW OR NO CLOUDS BELOW 12,000 FEET WITH NO
SIGNIFICANT WEATHER AND/OR OBSTRUCTIONS TO VISIBILITY. N/A MEANS
CURRENT SKY AND/OR WEATHER CONDITIONS ARE NOT AVAILABLE.

MNZ060>063-068>070-202200-
   Twin Cities Metro

CITY           SKY/WX    TMP DP  RH WIND       PRES   REMARKS
TWIN CITIES    MOSUNNY   75  52  44 NW9       29.83R
ST PAUL        SUNNY     74  53  48 W9        29.83R
CRYSTAL        SUNNY     73  47  39 NW8       29.82S
BLAINE         MOSUNNY   75  52  43 W9        29.83R
LAKEVILLE      SUNNY     73  54  49 NW5       29.84S
EDEN PRAIRIE   SUNNY     74  50  42 W9        29.83S
SOUTH ST PAUL  SUNNY     74  51  44 W8        29.83R
LAKE ELMO      FAIR      73  55  53 W3        29.84S
$$
MNZ001>005-007-008-013>017-022>024-027-028-202200-
   Northwest Minnesota

CITY           SKY/WX    TMP DP  RH WIND       PRES   REMARKS
BEMIDJI        SUNNY     67  41  39 W12G20    29.80R
HALLOCK        CLOUDY    72  32  23 SW16G25   29.68S
ROSEAU         MOSUNNY   70  39  32 SW15G21   29.72S
WARROAD        SUNNY     66  43  42 W16       29.72S
CROOKSTON      SUNNY     70  39  32 SW15      29.73F
FOSSTON        MOSUNNY   68  46  45 SW12      29.79R
DETROIT LAKES  SUNNY     68  37  32 SW6       29.81S
MOORHEAD       SUNNY     72  37  28 SW9       29.77F
PARK RAPIDS    SUNNY     68  44  42 SW10      29.82R
MAHNOMEN       FAIR      67  40  36 SW12G17   29.78S
$$
MNZ006-009>011-018-025>026-202200-
   North Central Minnesota

CITY           SKY/WX    TMP DP  RH WIND       PRES   REMARKS
BAUDETTE       SUNNY     67  40  37 W12       29.73S
FLAG ISLAND    MOSUNNY   66  43  42 SW13G20   29.69S
INTL FALLS     SUNNY     66  44  45 W10G20    29.75R
WASKISH        MOSUNNY   64  48  55 SW9       29.78R
BIG FORK       MOSUNNY   66  45  45 SW12G18   29.79R
LONGVILLE      SUNNY     66  43  42 W7        29.81R
GRAND RAPIDS   SUNNY     65  46  50 SW12      29.83R
CRANE LAKE     MOSUNNY   66  52  59 W5        29.77S
ORR            SUNNY     66  43  42 W6        29.75R
COOK           MOSUNNY   66  48  52 W10       29.78R
WALKER         FAIR      66  42  42 W12G17    29.81R
$$
MNZ012-019>021-037-202200-
   Northeast Minnesota

CITY           SKY/WX    TMP DP  RH WIND       PRES   REMARKS
DULUTH         MOSUNNY   70  49  47 W17       29.79R
ELY            MOSUNNY   66  54  63 W8        29.76S
HIBBING        SUNNY     66  44  45 W7        29.79R
EVELETH        SUNNY     68  35  30 W12       29.80R
DULUTH HARBOR  SUNNY     73  57  56 SW14      29.78R
SILVER BAY     SUNNY     73  57  56 W7        29.74R
GRAND MARAIS     N/A     65  61  87 E3        29.72R
$$
MNZ029>031-032-039>041-046>048-054>057-064-202200-
   West Central Minnesota

CITY           SKY/WX    TMP DP  RH WIND       PRES   REMARKS
FERGUS FALLS   SUNNY     70  41  35 W8        29.80S
WHEATON        SUNNY     72  36  26 W6        29.83S
MORRIS         SUNNY     72  41  33 W3        29.82S
ALEXANDRIA     SUNNY     69  41  36 CALM      29.85S
ELBOW LAKE     FAIR      68  39  35 W9        29.82F
WADENA         SUNNY     66  41  39 W7        29.83R
GLENWOOD       SUNNY     70  41  35 CALM      29.85S
APPLETON       SUNNY     72  36  26 W5        29.83S
BENSON         SUNNY     72  39  30 W8        29.85S
ORTONVILLE     SUNNY     72  39  30 CALM      29.83S
MADISON        SUNNY     73  41  31 W3        29.84S
WILLMAR        FAIR      70  48  46 SW5       29.87S
$$
MNZ033>034-036-042>043-049>051-058-059-202200-
   Central Minnesota

CITY           SKY/WX    TMP DP  RH WIND       PRES   REMARKS
ST CLOUD       SUNNY     70  49  47 NW7       29.84R
SAUK CENTRE    FAIR      67  44  43 W5        29.85S
PAYNESVILLE    SUNNY     70  46  42 NW6       29.86S
AITKIN         SUNNY     68  46  45 SW6       29.82R
PINE RIVER     SUNNY     64  45  48 CALM      29.86R
BRAINERD       SUNNY     68  42  38 W12       29.83R
LITTLE FALLS   SUNNY     68  36  30 W5        29.85R
LITCHFIELD     SUNNY     70  48  46 W5        29.86S
BUFFALO        SUNNY     71  46  39 W7        29.85R
MAPLE LAKE     SUNNY     72  49  45 W9        29.86R
HUTCHINSON     SUNNY     72  50  45 NW10G16   29.87R
$$
MNZ037-044-045-052-053-202200-
   East Central Minnesota

CITY           SKY/WX    TMP DP  RH WIND       PRES   REMARKS
PRINCETON      SUNNY     73  50  43 W10       29.84R
MORA           SUNNY     70  48  46 NW7       29.85R
RUSH CITY      SUNNY     72  52  48 W5        29.83R
MOOSE LAKE     SUNNY     72  50  46 NW5       29.80R
HINCKLEY       FAIR      72  52  49 W8        29.82R
CLOQUET        SUNNY     70  45  40 W9        29.80R
MCGREGOR       SUNNY     68  46  45 W8        29.83R
$$
MNZ071>073-080-081-089-090-097-098-202200-
   Southwest Minnesota

CITY           SKY/WX    TMP DP  RH WIND       PRES   REMARKS
MONTEVIDEO     SUNNY     77  45  31 CALM      29.85S
GRANITE FALLS  SUNNY     72  47  41 NW3       29.86F
CANBY          SUNNY     72  43  35 W3        29.85S
MARSHALL       SUNNY     72  42  34 SW7       29.86S
REDWOOD FALLS  SUNNY     72  45  37 NW7       29.85S
OLIVIA         SUNNY     70  45  40 W3        29.86S
PIPESTONE      SUNNY     70  46  43 S5        29.87F
WORTHINGTON    SUNNY     72  43  35 W6        29.88R
JACKSON        SUNNY     72  45  37 CALM      29.88S
TRACY          SUNNY     72  45  38 W5        29.87S
SLAYTON        SUNNY     71  45  39 W6        29.89R
$$
MNZ065>067-074>077-082>085-091>093-202200-
   South Central Minnesota

CITY           SKY/WX    TMP DP  RH WIND       PRES   REMARKS
MANKATO        SUNNY     72  51  47 NW7       29.86R
NEW ULM        SUNNY     72  45  37 NW8       29.86R
ST JAMES       SUNNY     73  46  38 W8        29.87S
GLENCOE        SUNNY     73  52  48 NW9       29.85R
FARIBAULT      SUNNY     73  55  53 W10       29.85S
OWATONNA       SUNNY     73  55  53 NW10      29.85R
WASECA         SUNNY     72  52  49 NW6       29.87S
ALBERT LEA     SUNNY     79  55  44 NW7       29.85R
$$
MNZ078>079-086>088-094>096-202200-
   Southeast Minnesota

CITY           SKY/WX    TMP DP  RH WIND       PRES   REMARKS
ROCHESTER      CLOUDY    74  59  59 NW10      29.85R
RED WING       SUNNY     79  50  36 NW6       29.81R
STANTON        SUNNY     75  54  48 NW6       29.83R
DODGE CENTER   PTSUNNY   73  54  49 NW9       29.86R
WINONA         MOSUNNY   79  63  57 NW16      29.79R
AUSTIN         SUNNY     75  57  53 NW9       29.84R
PRESTON        SUNNY     76  62  62 NW12G17   29.83R
$$
ABBREVIATIONS USED IN REMARKS
   TC - TEMPERATURES IN CELSIUS
  WCI - WIND CHILL INDEX
   HX - HEAT INDEX
  VSB - VISIBILITY
$$




USA.gov is the U.S. government's official web portal to all federal, state and local government web resources and services.